Weather History for Ephrata, WA

Change the Weather History Date:

Tuesday, February 4, 2014

  Actual Average Record
Temperature  
Mean Temperature 16 °F 32 °F  
Max Temperature 23 °F 39 °F 60 °F (1967)
Min Temperature 8 °F 24 °F -19 °F (1985)
Degree Days  
Heating Degree Days 49 33  
Month to date heating degree days 172 133  
Since 1 July heating degree days 3784 3841  
Cooling Degree Days 0 0  
Month to date cooling degree days 0 0  
Year to date cooling degree days 0 0  
Moisture  
Dew Point 5 °F    
Average Humidity 59    
Maximum Humidity 77    
Minimum Humidity 41    
Precipitation  
Precipitation 0.00 in 0.03 in 0.15 in (1950)
Month to date precipitation T 0.10  
Year to date precipitation 0.31 1.01  
Sea Level Pressure  
Sea Level Pressure 30.45 in    
Wind  
Wind Speed 12 mph (NNE)    
Max Wind Speed 21 mph    
Max Gust Speed 25 mph    
Visibility 10 miles    
Events      
T = Trace of Precipitation, MM = Missing Value Source: NWS Daily Summary

Daily Weather History Graph

Daily Weather History Graph

Search for Another Location

Airport:

Trip Planner

Search our weather history database for the weather conditions in past years. The results will help you decide how hot, cold, wet, or windy it might be!

Date:

Astronomy

Feb. 04, 2014 Rise Set
Actual Time 7:19 AM PST 5:04 PM PST
Civil Twilight 6:47 AM PST 5:37 PM PST
Nautical Twilight 6:10 AM PST 6:13 PM PST
Astronomical Twilight 5:34 AM PST 6:49 PM PST
Moon 9:35 AM PST (2/4) 11:32 PM PST (2/4)
Length of Visible Light 10h 50m
Length of Day
9h 45m
Waxing Crescent, 30% of the Moon is Illuminated
Feb 4
Waxing Crescent
Feb 6
First Quarter
Feb 14
Full
Feb 22
Last Quarter
Mar 1
New

Hourly Weather History & Observations

Time (PST) Temp. Windchill Dew Point Humidity Pressure Visibility Wind Dir Wind Speed Gust Speed Precip Events Conditions
12:53 AM 23.0 °F 13.1 °F 16.0 °F 74% 30.28 in 10.0 mi North 9.2 mph - N/A   Overcast
1:53 AM 21.9 °F 9.2 °F 15.1 °F 75% 30.30 in 10.0 mi NNW 13.8 mph - N/A   Overcast
2:53 AM 21.0 °F 11.4 °F 15.1 °F 78% 30.31 in 10.0 mi North 8.1 mph - N/A   Overcast
3:53 AM 21.0 °F 11.4 °F 14.0 °F 74% 30.32 in 10.0 mi NNE 8.1 mph - N/A   Overcast
4:53 AM 21.0 °F 9.3 °F 8.1 °F 57% 30.34 in 10.0 mi NE 11.5 mph - N/A   Overcast
5:53 AM 19.9 °F 6.7 °F 7.0 °F 57% 30.36 in 10.0 mi NNE 13.8 mph - N/A   Overcast
6:53 AM 18.0 °F 3.6 °F 5.0 °F 57% 30.39 in 10.0 mi NNE 15.0 mph - N/A   Overcast
7:53 AM 18.0 °F 3.1 °F 3.9 °F 54% 30.41 in 10.0 mi NNE 16.1 mph - N/A   Overcast
8:53 AM 19.0 °F 5.0 °F 3.0 °F 50% 30.43 in 10.0 mi NE 15.0 mph - N/A   Overcast
9:53 AM 19.9 °F 5.2 °F 1.9 °F 46% 30.46 in 10.0 mi NE 17.3 mph - N/A   Mostly Cloudy
10:53 AM 21.9 °F 7.8 °F 3.9 °F 46% 30.47 in 10.0 mi NE 17.3 mph 23.0 mph N/A   Overcast
11:53 AM 21.9 °F 8.7 °F 3.0 °F 44% 30.46 in 10.0 mi NNE 15.0 mph - N/A   Overcast
12:53 PM 21.9 °F 8.2 °F 3.0 °F 44% 30.45 in 10.0 mi NE 16.1 mph - N/A   Overcast
1:53 PM 21.9 °F 8.7 °F 1.9 °F 42% 30.45 in 10.0 mi ENE 15.0 mph 20.7 mph N/A   Overcast
2:53 PM 23.0 °F 11.7 °F 3.0 °F 42% 30.45 in 10.0 mi NE 11.5 mph - N/A   Scattered Clouds
3:53 PM 19.9 °F 9.3 °F 3.9 °F 50% 30.47 in 10.0 mi ENE 9.2 mph - N/A   Partly Cloudy
4:53 PM 18.0 °F 9.8 °F 5.0 °F 57% 30.48 in 10.0 mi ENE 5.8 mph - N/A   Overcast
5:53 PM 12.9 °F 5.2 °F 3.0 °F 65% 30.51 in 10.0 mi ENE 4.6 mph - N/A   Mostly Cloudy
6:53 PM 12.9 °F 5.2 °F 3.0 °F 65% 30.52 in 10.0 mi North 4.6 mph - N/A   Overcast
7:53 PM 14.0 °F 2.9 °F 1.0 °F 56% 30.54 in 10.0 mi NNE 8.1 mph - N/A   Overcast
8:53 PM 12.0 °F -1.3 °F -0.0 °F 59% 30.56 in 10.0 mi NNE 10.4 mph - N/A   Clear
9:53 PM 10.9 °F -3.4 °F -2.0 °F 56% 30.57 in 10.0 mi NE 11.5 mph - N/A   Clear
10:53 PM 9.0 °F -5.9 °F -2.9 °F 59% 30.58 in 10.0 mi NNE 11.5 mph - N/A   Clear
11:53 PM 8.1 °F -6.2 °F -2.9 °F 61% 30.60 in 10.0 mi NNE 10.4 mph - N/A   Partly Cloudy